CZ-6A DEB

Satellite information

Favourite Embed

Satellite Type and Status

DEBRISIN ORBIT

Key statistics

Satellite CZ-6A DEB at a glance.

Uptime

907

Days in orbit

Revolutions

≈ 14.2

Per day

Orbit

SSO

Sun Synchronous Orbit

Inclination

98.8

Latest

Satellite identification and parameters

Extended collection of information and parameters for CZ-6A DEB.

Object identification

Identified? True

Debris? True

Object name: CZ-6A DEB

International designator: 2022-151ADU

Object number (NORAD): 56596

Object ID (CCSDS): 56596

Country: PEOPLES REPUBLIC OF CHINA (PRC)

Current information (Y/N): Y

RCS size: SMALL

Orbital parameters

Period: 101.496 minutes

Inclination: 98.818 deg

SMA: 7207.635 km

Apoapsis: 856.661 km

Periapsis: 802.338 km

RAAN: 131.8345 deg

Eccentricy: 0.0037684

Argument of periapsis: 32.6356 deg

Mean anomaly: 327.7137 deg

Mean motion: 14.18775304 rev/day

Mean motion (dot): 0.00004631 rev/day2

B* drag term: 0.0022327 1/REarth

Two-line elements (TLE)

Creation date: May 4, 2025, 5:21 p.m.

Reference frame: TEME

Reference center: EARTH

Epoch: May 3, 2025, 10:50 p.m. UTC

TLE line 0: 0 CZ-6A DEB

TLE line 1: 1 56596U 22151ADU 25123.95158059 .00004631 00000-0 22327-2 0 9999

TLE line 2: 2 56596 98.8180 131.8345 0037684 32.6356 327.7137 14.18775304116115

Live tracking on map

Real-time ground track for satellite CZ-6A DEB.

In-orbit conjunctions

A list of the most updated potential collisions computed for object CZ-6A DEB.

Target Orbit TCA Probability of collision Miss distance Type
SL-3 R/B LEO 2025-01-14 21:27:52 0.0001985912 96.0 (m) ROCKET BODY
METEOR 2-7 LEO 2024-11-21 20:00:23 0.0001529224 701.0 (m) PAYLOAD

Associated space launch

Chinese satellite reported for atmospheric/ocean/environmental/spatial parameter research purposes, details TBD.

CZ-6A DEB was lifted into orbit during the mission ‘Long March 6A | Yunhai 3’, on board a Long March 6A space rocket.

The launch took place on Nov. 11, 2022, 10:52 p.m. from Launch Complex 9A.

For more information about the launch, click the button.

Launch to space Long March 6A | Yunhai 3
Long March 6A | Yunhai 3

Agency: N/A

Status: Launch Successful

Launch date: Nov. 11, 2022, 10:52 p.m. UTC

Rocket: Long March 6A

Launch pad: Launch Complex 9A

Location: Taiyuan Satellite Launch Center, People's Republic of China

...

Latest news about this satellite

There are no fresh news available about this satellite. Check back as we update our databases every day.


Newsletter sign-up

Weekly statistics, charts and insights to help you stay on top of the space industry.